Time,TemperatureF,DewpointF,PressureIn,WindDirection,WindDirectionDegrees,WindSpeedMPH,WindSpeedGustMPH,Humidity,HourlyPrecipIn,Conditions,Clouds,dailyrainin,SoftwareType,DateUTC
2013-02-17 00:00:00,36.7,17.9,23.86,South,169,0.0,0.0,46,0.00,,CLR,0.00,VWS V14.01,2013-02-17 07:00:00,
2013-02-17 00:05:00,36.7,16.8,23.86,South,177,0.0,0.0,44,0.00,,CLR,0.00,VWS V14.01,2013-02-17 07:05:00,
2013-02-17 00:10:00,36.9,16.5,23.86,South,183,0.0,0.0,43,0.00,,CLR,0.00,VWS V14.01,2013-02-17 07:10:00,
2013-02-17 00:15:00,37.0,16.6,23.86,South,182,0.0,0.0,43,0.00,,CLR,0.00,VWS V14.01,2013-02-17 07:15:00,
2013-02-17 00:20:00,37.0,17.2,23.86,South,184,0.0,0.0,44,0.00,,CLR,0.00,VWS V14.01,2013-02-17 07:20:00,
2013-02-17 00:25:00,37.0,17.2,23.86,South,186,0.0,0.0,44,0.00,,CLR,0.00,VWS V14.01,2013-02-17 07:25:00,
2013-02-17 00:30:00,36.9,17.5,23.86,South,173,0.0,0.0,45,0.00,,CLR,0.00,VWS V14.01,2013-02-17 07:30:00,
2013-02-17 00:35:00,36.7,17.9,23.86,South,173,0.0,0.0,46,0.00,,CLR,0.00,VWS V14.01,2013-02-17 07:35:00,
2013-02-17 00:40:00,36.3,16.5,23.86,South,185,0.0,0.0,44,0.00,,CLR,0.00,VWS V14.01,2013-02-17 07:40:00,
2013-02-17 00:45:00,36.1,16.4,23.86,South,186,0.0,0.0,44,0.00,,CLR,0.00,VWS V14.01,2013-02-17 07:45:00,
2013-02-17 00:50:00,36.1,16.4,23.86,South,186,0.0,0.0,44,0.00,,CLR,0.00,VWS V14.01,2013-02-17 07:50:00,
2013-02-17 00:55:00,36.3,16.5,23.86,South,186,0.0,0.0,44,0.00,,CLR,0.00,VWS V14.01,2013-02-17 07:55:00,
2013-02-17 01:00:00,36.1,16.9,23.86,South,186,0.0,0.0,45,0.00,,CLR,0.00,VWS V14.01,2013-02-17 08:00:00,
2013-02-17 01:05:00,36.1,17.4,23.86,South,186,0.0,0.0,46,0.00,,CLR,0.00,VWS V14.01,2013-02-17 08:05:00,
2013-02-17 01:10:00,36.1,16.9,23.86,South,186,0.0,0.0,45,0.00,,CLR,0.00,VWS V14.01,2013-02-17 08:10:00,
2013-02-17 01:15:00,36.1,16.4,23.86,South,186,0.0,0.0,44,0.00,,CLR,0.00,VWS V14.01,2013-02-17 08:15:00,
2013-02-17 01:20:00,36.3,16.5,23.86,South,186,0.0,0.0,44,0.00,,CLR,0.00,VWS V14.01,2013-02-17 08:20:00,
2013-02-17 01:25:00,36.3,16.5,23.86,South,186,0.0,0.0,44,0.00,,CLR,0.00,VWS V14.01,2013-02-17 08:25:00,
2013-02-17 01:30:00,36.5,16.7,23.83,South,186,0.0,0.0,44,0.00,,CLR,0.00,VWS V14.01,2013-02-17 08:30:00,
2013-02-17 01:35:00,36.7,16.8,23.83,South,186,0.0,0.0,44,0.00,,CLR,0.00,VWS V14.01,2013-02-17 08:35:00,
2013-02-17 01:40:00,36.9,16.5,23.83,SSW,195,0.0,0.0,43,0.00,,CLR,0.00,VWS V14.01,2013-02-17 08:40:00,
2013-02-17 01:45:00,37.0,16.6,23.83,SSW,203,0.0,0.0,43,0.00,,CLR,0.00,VWS V14.01,2013-02-17 08:45:00,
2013-02-17 01:50:00,37.4,17.0,23.83,SSW,204,0.0,0.0,43,0.00,,CLR,0.00,VWS V14.01,2013-02-17 08:50:00,
2013-02-17 01:55:00,37.4,17.0,23.83,SSW,195,0.0,5.4,43,0.00,,CLR,0.00,VWS V14.01,2013-02-17 08:55:00,
2013-02-17 02:00:00,37.4,17.0,23.83,SSW,195,0.0,0.0,43,0.00,,CLR,0.00,VWS V14.01,2013-02-17 09:00:00,
2013-02-17 02:05:00,37.6,17.1,23.83,SSW,200,0.0,0.0,43,0.00,,CLR,0.00,VWS V14.01,2013-02-17 09:05:00,
2013-02-17 02:10:00,37.6,16.6,23.83,SSW,199,0.0,0.0,42,0.00,,CLR,0.00,VWS V14.01,2013-02-17 09:10:00,
2013-02-17 02:15:00,37.6,16.6,23.83,SSW,199,0.0,0.0,42,0.00,,CLR,0.00,VWS V14.01,2013-02-17 09:15:00,
2013-02-17 02:20:00,37.4,15.9,23.83,SSW,197,0.0,0.0,41,0.00,,CLR,0.00,VWS V14.01,2013-02-17 09:20:00,
2013-02-17 02:25:00,37.4,15.9,23.83,SSW,195,0.0,0.0,41,0.00,,CLR,0.00,VWS V14.01,2013-02-17 09:25:00,
2013-02-17 02:30:00,37.0,16.1,23.83,SSW,195,0.0,0.0,42,0.00,,CLR,0.00,VWS V14.01,2013-02-17 09:30:00,
2013-02-17 02:35:00,36.9,15.4,23.83,South,191,0.0,0.0,41,0.00,,CLR,0.00,VWS V14.01,2013-02-17 09:35:00,
2013-02-17 02:40:00,36.7,15.8,23.83,South,187,0.0,0.0,42,0.00,,,0.00,VWS V14.01,2013-02-17 09:40:00,
2013-02-17 02:45:00,36.3,15.4,23.83,SSW,192,0.0,0.0,42,0.00,,,0.00,VWS V14.01,2013-02-17 09:45:00,
2013-02-17 02:50:00,36.1,15.3,23.83,SSW,199,0.0,0.0,42,0.00,,CLR,0.00,VWS V14.01,2013-02-17 09:50:00,
2013-02-17 02:55:00,36.0,15.1,23.83,South,189,0.0,0.0,42,0.00,,CLR,0.00,VWS V14.01,2013-02-17 09:55:00,
2013-02-17 03:00:00,35.8,14.9,23.83,SSW,198,0.0,0.0,42,0.00,,CLR,0.00,VWS V14.01,2013-02-17 10:00:00,
2013-02-17 03:05:00,35.6,14.8,23.83,South,180,0.0,0.0,42,0.00,,CLR,0.00,VWS V14.01,2013-02-17 10:05:00,
2013-02-17 03:10:00,35.4,15.2,23.83,South,178,0.0,0.0,43,0.00,,CLR,0.00,VWS V14.01,2013-02-17 10:10:00,
2013-02-17 03:15:00,35.2,15.5,23.80,South,173,0.0,0.0,44,0.00,,CLR,0.00,VWS V14.01,2013-02-17 10:15:00,
2013-02-17 03:20:00,35.1,15.4,23.80,South,171,0.0,0.0,44,0.00,,CLR,0.00,VWS V14.01,2013-02-17 10:20:00,
2013-02-17 03:25:00,34.7,16.0,23.80,South,171,0.0,0.0,46,0.00,,CLR,0.00,VWS V14.01,2013-02-17 10:25:00,
2013-02-17 03:30:00,34.3,15.7,23.80,South,171,0.0,0.0,46,0.00,,CLR,0.00,VWS V14.01,2013-02-17 10:30:00,
2013-02-17 03:35:00,34.0,15.4,23.80,South,171,0.0,0.0,46,0.00,,CLR,0.00,VWS V14.01,2013-02-17 10:35:00,
2013-02-17 03:40:00,33.8,15.2,23.80,South,171,0.0,0.0,46,0.00,,CLR,0.00,VWS V14.01,2013-02-17 10:40:00,
2013-02-17 03:45:00,33.6,16.0,23.80,South,175,0.0,0.0,48,0.00,,CLR,0.00,VWS V14.01,2013-02-17 10:45:00,
2013-02-17 03:50:00,33.4,16.4,23.80,South,175,0.0,0.0,49,0.00,,CLR,0.00,VWS V14.01,2013-02-17 10:50:00,
2013-02-17 03:55:00,33.3,16.6,23.80,SSE,165,0.0,0.0,50,0.00,,CLR,0.00,VWS V14.01,2013-02-17 10:55:00,
2013-02-17 04:00:00,33.3,16.6,23.80,South,173,0.0,0.0,50,0.00,,CLR,0.00,VWS V14.01,2013-02-17 11:00:00,
2013-02-17 04:05:00,33.3,16.6,23.80,SSE,154,2.2,2.2,50,0.00,,CLR,0.00,VWS V14.01,2013-02-17 11:05:00,
2013-02-17 04:10:00,33.3,16.6,23.80,South,175,0.0,0.0,50,0.00,,CLR,0.00,VWS V14.01,2013-02-17 11:10:00,
2013-02-17 04:15:00,33.3,16.6,23.80,South,178,0.0,0.0,50,0.00,,CLR,0.00,VWS V14.01,2013-02-17 11:15:00,
2013-02-17 04:20:00,33.4,16.4,23.80,South,175,0.0,0.0,49,0.00,,CLR,0.00,VWS V14.01,2013-02-17 11:20:00,
2013-02-17 04:25:00,33.8,16.2,23.80,South,185,2.7,2.7,48,0.00,,CLR,0.00,VWS V14.01,2013-02-17 11:25:00,
2013-02-17 04:30:00,33.8,16.7,23.80,South,190,2.2,3.1,49,0.00,,CLR,0.00,VWS V14.01,2013-02-17 11:30:00,
2013-02-17 04:35:00,33.8,16.7,23.80,South,188,2.2,3.1,49,0.00,,CLR,0.00,VWS V14.01,2013-02-17 11:35:00,
2013-02-17 04:40:00,33.8,16.7,23.80,South,188,2.2,3.1,49,0.00,,CLR,0.00,VWS V14.01,2013-02-17 11:40:00,
2013-02-17 04:45:00,34.0,15.9,23.77,South,177,2.7,3.6,47,0.00,,CLR,0.00,VWS V14.01,2013-02-17 11:45:00,
2013-02-17 04:50:00,34.0,15.4,23.77,South,184,2.7,3.6,46,0.00,,CLR,0.00,VWS V14.01,2013-02-17 11:50:00,
2013-02-17 04:55:00,34.2,15.6,23.77,SSW,193,2.7,3.6,46,0.00,,CLR,0.00,VWS V14.01,2013-02-17 11:55:00,
2013-02-17 05:00:00,34.2,15.6,23.77,South,189,2.7,2.7,46,0.00,,CLR,0.00,VWS V14.01,2013-02-17 12:00:00,
2013-02-17 05:05:00,34.2,15.6,23.77,South,185,2.7,3.6,46,0.00,,CLR,0.00,VWS V14.01,2013-02-17 12:05:00,
2013-02-17 05:10:00,34.3,15.7,23.77,SSW,192,2.7,3.1,46,0.00,,CLR,0.00,VWS V14.01,2013-02-17 12:10:00,
2013-02-17 05:15:00,34.3,15.7,23.77,South,187,0.0,3.6,46,0.00,,CLR,0.00,VWS V14.01,2013-02-17 12:15:00,
2013-02-17 05:20:00,34.5,15.9,23.77,SSW,196,0.0,3.6,46,0.00,,CLR,0.00,VWS V14.01,2013-02-17 12:20:00,
2013-02-17 05:25:00,34.5,15.4,23.77,SSW,195,0.0,0.0,45,0.00,,CLR,0.00,VWS V14.01,2013-02-17 12:25:00,
2013-02-17 05:30:00,34.7,15.0,23.77,SSW,196,0.0,0.0,44,0.00,,CLR,0.00,VWS V14.01,2013-02-17 12:30:00,
2013-02-17 05:35:00,34.9,14.7,23.77,SSW,195,0.0,0.0,43,0.00,,CLR,0.00,VWS V14.01,2013-02-17 12:35:00,
2013-02-17 05:40:00,35.1,14.8,23.77,SSW,208,0.0,0.0,43,0.00,,,0.00,VWS V14.01,2013-02-17 12:40:00,
2013-02-17 05:45:00,35.1,14.8,23.77,SSW,204,0.0,0.0,43,0.00,,,0.00,VWS V14.01,2013-02-17 12:45:00,
2013-02-17 05:50:00,35.1,14.3,23.77,SSW,203,0.0,0.0,42,0.00,,,0.00,VWS V14.01,2013-02-17 12:50:00,
2013-02-17 05:55:00,35.1,14.3,23.77,SSW,201,0.0,0.0,42,0.00,,,0.00,VWS V14.01,2013-02-17 12:55:00,
2013-02-17 06:00:00,35.1,14.8,23.77,SSW,198,0.0,0.0,43,0.00,,,0.00,VWS V14.01,2013-02-17 13:00:00,
2013-02-17 06:05:00,34.9,14.7,23.77,SSW,193,0.0,0.0,43,0.00,,,0.00,VWS V14.01,2013-02-17 13:05:00,
2013-02-17 06:10:00,34.7,15.0,23.77,South,188,0.0,0.0,44,0.00,,,0.00,VWS V14.01,2013-02-17 13:10:00,
2013-02-17 06:15:00,34.3,15.2,23.77,South,188,0.0,0.0,45,0.00,,,0.00,VWS V14.01,2013-02-17 13:15:00,
2013-02-17 06:20:00,34.0,15.4,23.77,South,175,0.0,0.0,46,0.00,,,0.00,VWS V14.01,2013-02-17 13:20:00,
2013-02-17 06:25:00,33.3,15.7,23.77,South,175,0.0,0.0,48,0.00,,,0.00,VWS V14.01,2013-02-17 13:25:00,
2013-02-17 06:30:00,32.9,16.8,23.77,South,175,0.0,0.0,51,0.00,,,0.00,VWS V14.01,2013-02-17 13:30:00,
2013-02-17 06:35:00,32.7,16.6,23.77,SSE,164,0.0,0.0,51,0.00,,CLR,0.00,VWS V14.01,2013-02-17 13:35:00,
2013-02-17 06:40:00,32.7,16.6,23.77,SSE,164,0.0,0.0,51,0.00,,CLR,0.00,VWS V14.01,2013-02-17 13:40:00,
2013-02-17 06:45:00,32.5,16.4,23.77,SSE,164,0.0,0.0,51,0.00,,CLR,0.00,VWS V14.01,2013-02-17 13:45:00,
2013-02-17 06:50:00,32.4,15.8,23.77,SSE,164,0.0,0.0,50,0.00,,CLR,0.00,VWS V14.01,2013-02-17 13:50:00,
2013-02-17 06:55:00,32.2,16.1,23.77,SSE,165,0.0,0.0,51,0.00,,CLR,0.00,VWS V14.01,2013-02-17 13:55:00,
2013-02-17 07:00:00,32.0,16.4,23.77,SSE,165,0.0,0.0,52,0.00,,CLR,0.00,VWS V14.01,2013-02-17 14:00:00,
2013-02-17 07:05:00,32.0,16.8,23.77,SSE,165,0.0,0.0,53,0.00,,CLR,0.00,VWS V14.01,2013-02-17 14:05:00,
2013-02-17 07:10:00,31.8,17.1,23.77,SSE,165,0.0,0.0,54,0.00,,CLR,0.00,VWS V14.01,2013-02-17 14:10:00,
2013-02-17 07:15:00,31.8,17.1,23.77,SSE,165,0.0,0.0,54,0.00,,CLR,0.00,VWS V14.01,2013-02-17 14:15:00,
2013-02-17 07:20:00,32.2,17.4,23.77,SSE,164,0.0,0.0,54,0.00,,CLR,0.00,VWS V14.01,2013-02-17 14:20:00,
2013-02-17 07:25:00,32.4,17.6,23.77,SSE,164,0.0,0.0,54,0.00,,CLR,0.00,VWS V14.01,2013-02-17 14:25:00,
2013-02-17 07:30:00,32.2,17.0,23.74,SSE,156,0.0,0.0,53,0.00,,CLR,0.00,VWS V14.01,2013-02-17 14:30:00,
2013-02-17 07:35:00,32.2,17.0,23.74,SSE,168,0.0,0.0,53,0.00,,CLR,0.00,VWS V14.01,2013-02-17 14:35:00,
2013-02-17 07:40:00,32.2,17.0,23.74,SSE,158,0.0,0.0,53,0.00,,CLR,0.00,VWS V14.01,2013-02-17 14:40:00,
2013-02-17 07:45:00,32.2,16.5,23.77,SSE,162,0.0,0.0,52,0.00,,CLR,0.00,VWS V14.01,2013-02-17 14:45:00,
2013-02-17 07:50:00,32.0,16.4,23.77,SSE,163,0.0,0.0,52,0.00,,CLR,0.00,VWS V14.01,2013-02-17 14:50:00,
2013-02-17 07:55:00,31.6,16.5,23.77,South,172,0.0,0.0,53,0.00,,CLR,0.00,VWS V14.01,2013-02-17 14:55:00,
2013-02-17 07:59:00,31.8,17.1,23.77,South,173,0.0,0.0,54,0.00,,CLR,0.00,VWS V14.01,2013-02-17 14:59:00,
2013-02-17 08:04:00,31.8,17.1,23.77,South,176,0.0,0.0,54,0.00,,CLR,0.00,VWS V14.01,2013-02-17 15:04:00,
2013-02-17 08:10:00,32.2,17.4,23.77,South,191,0.0,0.0,54,0.00,,CLR,0.00,VWS V14.01,2013-02-17 15:10:00,
2013-02-17 08:15:00,32.5,18.2,23.77,South,191,0.0,0.0,55,0.00,,CLR,0.00,VWS V14.01,2013-02-17 15:15:00,
2013-02-17 08:20:00,33.1,18.7,23.77,South,191,0.0,0.0,55,0.00,,CLR,0.00,VWS V14.01,2013-02-17 15:20:00,
2013-02-17 08:25:00,33.4,19.0,23.77,South,191,0.0,0.0,55,0.00,,CLR,0.00,VWS V14.01,2013-02-17 15:25:00,
2013-02-17 08:30:00,34.2,18.8,23.74,South,183,2.2,3.6,53,0.00,,CLR,0.00,VWS V14.01,2013-02-17 15:30:00,
2013-02-17 08:35:00,35.4,19.6,23.74,South,180,0.0,3.6,52,0.00,,CLR,0.00,VWS V14.01,2013-02-17 15:35:00,
2013-02-17 08:40:00,36.1,19.8,23.74,South,188,0.0,0.0,51,0.00,,CLR,0.00,VWS V14.01,2013-02-17 15:40:00,
2013-02-17 08:45:00,36.7,19.8,23.77,ESE,110,0.0,0.0,50,0.00,,CLR,0.00,VWS V14.01,2013-02-17 15:45:00,
2013-02-17 08:50:00,37.6,20.2,23.77,SW,215,0.0,0.0,49,0.00,,CLR,0.00,VWS V14.01,2013-02-17 15:50:00,
2013-02-17 08:55:00,38.3,20.8,23.77,NE,48,0.0,0.0,49,0.00,,CLR,0.00,VWS V14.01,2013-02-17 15:55:00,
2013-02-17 09:00:00,39.2,21.2,23.77,ESE,114,0.0,0.0,48,0.00,,CLR,0.00,VWS V14.01,2013-02-17 16:00:00,
2013-02-17 09:05:00,40.3,19.6,23.77,WSW,247,0.0,2.7,43,0.00,,CLR,0.00,VWS V14.01,2013-02-17 16:05:00,
2013-02-17 09:10:00,41.9,19.4,23.77,North,353,0.0,5.8,40,0.00,,CLR,0.00,VWS V14.01,2013-02-17 16:10:00,
2013-02-17 09:15:00,42.3,19.1,23.77,WNW,293,2.7,5.8,39,0.00,,CLR,0.00,VWS V14.01,2013-02-17 16:15:00,
2013-02-17 09:20:00,43.0,18.5,23.77,WSW,257,3.6,6.3,37,0.00,,CLR,0.00,VWS V14.01,2013-02-17 16:20:00,
2013-02-17 09:25:00,44.1,20.1,23.77,South,184,0.0,5.4,38,0.00,,CLR,0.00,VWS V14.01,2013-02-17 16:25:00,
2013-02-17 09:30:00,45.5,18.8,23.74,West,274,3.6,5.4,34,0.00,,CLR,0.00,VWS V14.01,2013-02-17 16:30:00,
2013-02-17 09:35:00,47.7,21.4,23.74,WNW,285,0.0,5.4,35,0.00,,CLR,0.00,VWS V14.01,2013-02-17 16:35:00,
2013-02-17 09:40:00,47.3,19.7,23.74,West,275,3.1,5.8,33,0.00,,CLR,0.00,VWS V14.01,2013-02-17 16:40:00,
2013-02-17 09:45:00,47.5,18.4,23.74,SE,138,2.2,5.8,31,0.00,,CLR,0.00,VWS V14.01,2013-02-17 16:45:00,
2013-02-17 09:50:00,47.8,18.7,23.74,West,278,0.0,5.8,31,0.00,,CLR,0.00,VWS V14.01,2013-02-17 16:50:00,
2013-02-17 09:55:00,48.2,17.5,23.74,NW,322,0.0,5.8,29,0.00,,CLR,0.00,VWS V14.01,2013-02-17 16:55:00,
2013-02-17 10:00:00,48.7,18.7,23.74,NW,321,0.0,5.8,30,0.00,,CLR,0.00,VWS V14.01,2013-02-17 17:00:00,
2013-02-17 10:05:00,49.3,18.4,23.74,WSW,245,0.0,3.6,29,0.00,,CLR,0.00,VWS V14.01,2013-02-17 17:05:00,
2013-02-17 10:10:00,49.6,18.7,23.74,ESE,112,8.1,8.1,29,0.00,,CLR,0.00,VWS V14.01,2013-02-17 17:10:00,
2013-02-17 10:15:00,50.5,20.3,23.74,South,181,4.9,8.1,30,0.00,,CLR,0.00,VWS V14.01,2013-02-17 17:15:00,
2013-02-17 10:20:00,50.5,18.7,23.74,NW,310,3.1,8.1,28,0.00,,CLR,0.00,VWS V14.01,2013-02-17 17:20:00,
2013-02-17 10:25:00,50.5,18.7,23.74,SE,139,2.2,6.7,28,0.00,,CLR,0.00,VWS V14.01,2013-02-17 17:25:00,
2013-02-17 10:30:00,50.9,19.0,23.74,North,357,2.7,6.7,28,0.00,,CLR,0.00,VWS V14.01,2013-02-17 17:30:00,
2013-02-17 10:35:00,50.9,19.0,23.74,WNW,300,2.7,6.7,28,0.00,,CLR,0.00,VWS V14.01,2013-02-17 17:35:00,
2013-02-17 10:39:00,51.3,19.3,23.74,West,273,2.7,6.3,28,0.00,,CLR,0.00,VWS V14.01,2013-02-17 17:39:00,
2013-02-17 10:44:00,51.4,19.4,23.74,WSW,256,0.0,6.3,28,0.00,,CLR,0.00,VWS V14.01,2013-02-17 17:44:00,
2013-02-17 10:49:00,51.8,18.9,23.74,NW,307,0.0,6.3,27,0.00,,CLR,0.00,VWS V14.01,2013-02-17 17:49:00,
2013-02-17 10:54:00,52.0,19.1,23.74,SW,236,5.4,8.1,27,0.00,,CLR,0.00,VWS V14.01,2013-02-17 17:54:00,
2013-02-17 10:59:00,51.8,18.9,23.74,North,357,3.6,8.1,27,0.00,,CLR,0.00,VWS V14.01,2013-02-17 17:59:00,
2013-02-17 11:04:00,52.3,19.4,23.74,SW,214,2.7,3.6,27,0.00,,CLR,0.00,VWS V14.01,2013-02-17 18:04:00,
2013-02-17 11:09:00,52.9,19.8,23.74,North,0,5.4,7.2,27,0.00,,CLR,0.00,VWS V14.01,2013-02-17 18:09:00,
2013-02-17 11:14:00,52.5,19.5,23.74,NW,311,2.2,7.6,27,0.00,,CLR,0.00,VWS V14.01,2013-02-17 18:14:00,
2013-02-17 11:19:00,53.2,20.1,23.74,NNW,340,2.2,7.6,27,0.00,,CLR,0.00,VWS V14.01,2013-02-17 18:19:00,
2013-02-17 11:24:00,53.1,20.0,23.74,NW,305,3.1,8.3,27,0.00,,CLR,0.00,VWS V14.01,2013-02-17 18:24:00,
2013-02-17 11:29:00,53.2,20.1,23.74,NW,312,2.7,8.3,27,0.00,,CLR,0.00,VWS V14.01,2013-02-17 18:29:00,
2013-02-17 11:34:00,53.6,19.6,23.74,NE,54,5.8,8.3,26,0.00,,CLR,0.00,VWS V14.01,2013-02-17 18:34:00,
2013-02-17 11:39:00,53.2,20.1,23.74,North,7,3.1,6.3,27,0.00,,CLR,0.00,VWS V14.01,2013-02-17 18:39:00,
2013-02-17 11:44:00,53.4,20.3,23.74,NW,306,3.6,7.6,27,0.00,,CLR,0.00,VWS V14.01,2013-02-17 18:44:00,
2013-02-17 11:49:00,54.0,20.8,23.74,NW,313,3.6,7.6,27,0.00,,CLR,0.00,VWS V14.01,2013-02-17 18:49:00,
2013-02-17 11:54:00,54.5,20.3,23.74,NE,36,2.7,7.6,26,0.00,,CLR,0.00,VWS V14.01,2013-02-17 18:54:00,
2013-02-17 11:59:00,54.0,19.9,23.74,NW,325,4.5,8.1,26,0.00,,CLR,0.00,VWS V14.01,2013-02-17 18:59:00,
2013-02-17 12:04:00,54.1,20.0,23.74,WSW,256,2.7,6.3,26,0.00,,CLR,0.00,VWS V14.01,2013-02-17 19:04:00,
2013-02-17 12:09:00,54.5,20.3,23.74,North,357,2.7,8.1,26,0.00,,CLR,0.00,VWS V14.01,2013-02-17 19:09:00,
2013-02-17 12:14:00,55.2,21.0,23.74,North,5,3.1,8.1,26,0.00,,CLR,0.00,VWS V14.01,2013-02-17 19:14:00,
2013-02-17 12:19:00,55.4,21.1,23.74,North,353,3.1,8.1,26,0.00,,CLR,0.00,VWS V14.01,2013-02-17 19:19:00,
2013-02-17 12:24:00,55.9,21.6,23.74,ENE,65,2.7,8.1,26,0.00,,CLR,0.00,VWS V14.01,2013-02-17 19:24:00,
2013-02-17 12:29:00,56.1,21.7,23.74,NW,321,3.1,8.1,26,0.00,,CLR,0.00,VWS V14.01,2013-02-17 19:29:00,
2013-02-17 12:34:00,56.7,22.2,23.74,NW,311,2.7,8.1,26,0.00,,CLR,0.00,VWS V14.01,2013-02-17 19:34:00,
2013-02-17 12:39:00,56.7,22.2,23.74,WSW,243,4.0,5.8,26,0.00,,CLR,0.00,VWS V14.01,2013-02-17 19:39:00,
2013-02-17 12:44:00,57.0,22.5,23.71,WSW,245,4.5,6.3,26,0.00,,CLR,0.00,VWS V14.01,2013-02-17 19:44:00,
2013-02-17 12:49:00,56.8,22.3,23.71,WSW,257,2.7,6.3,26,0.00,,CLR,0.00,VWS V14.01,2013-02-17 19:49:00,
2013-02-17 12:54:00,57.2,21.7,23.71,ESE,102,2.7,6.3,25,0.00,,CLR,0.00,VWS V14.01,2013-02-17 19:54:00,
2013-02-17 12:59:00,57.6,23.0,23.71,North,4,5.8,6.3,26,0.00,,CLR,0.00,VWS V14.01,2013-02-17 19:59:00,
2013-02-17 13:04:00,57.7,23.1,23.71,NE,43,3.6,8.1,26,0.00,,CLR,0.00,VWS V14.01,2013-02-17 20:04:00,
2013-02-17 13:09:00,57.9,22.3,23.71,SW,226,5.8,5.8,25,0.00,,CLR,0.00,VWS V14.01,2013-02-17 20:09:00,
2013-02-17 13:14:00,58.5,22.8,23.71,WNW,287,6.3,7.6,25,0.00,,CLR,0.00,VWS V14.01,2013-02-17 20:14:00,
2013-02-17 13:19:00,58.8,23.1,23.71,NNW,330,4.9,7.6,25,0.00,,CLR,0.00,VWS V14.01,2013-02-17 20:19:00,
2013-02-17 13:24:00,59.4,23.6,23.71,SW,230,6.3,8.1,25,0.00,,CLR,0.00,VWS V14.01,2013-02-17 20:24:00,
2013-02-17 13:29:00,58.5,22.8,23.71,NNW,327,4.9,8.7,25,0.00,,CLR,0.00,VWS V14.01,2013-02-17 20:29:00,
2013-02-17 13:34:00,58.1,22.5,23.71,West,276,4.9,11.4,25,0.00,,CLR,0.00,VWS V14.01,2013-02-17 20:34:00,
2013-02-17 13:39:00,58.5,22.8,23.71,WNW,303,0.0,5.8,25,0.00,,,0.00,VWS V14.01,2013-02-17 20:39:00,
2013-02-17 13:44:00,58.6,22.9,23.71,West,277,4.9,6.3,25,0.00,,,0.00,VWS V14.01,2013-02-17 20:44:00,
2013-02-17 13:49:00,58.5,22.8,23.71,SW,236,5.4,7.2,25,0.00,,,0.00,VWS V14.01,2013-02-17 20:49:00,
2013-02-17 13:54:00,58.3,22.6,23.71,West,272,4.0,7.2,25,0.00,,,0.00,VWS V14.01,2013-02-17 20:54:00,
2013-02-17 13:59:00,58.1,22.5,23.71,SSW,211,3.6,7.2,25,0.00,,,0.00,VWS V14.01,2013-02-17 20:59:00,
2013-02-17 14:04:00,57.0,21.6,23.71,SW,232,3.6,6.7,25,0.00,,,0.00,VWS V14.01,2013-02-17 21:04:00,
2013-02-17 14:09:00,57.0,21.6,23.71,SW,229,5.4,7.6,25,0.00,,,0.00,VWS V14.01,2013-02-17 21:09:00,
2013-02-17 14:14:00,56.7,21.3,23.68,SSW,203,4.0,7.6,25,0.00,,,0.00,VWS V14.01,2013-02-17 21:14:00,
2013-02-17 14:19:00,56.7,21.3,23.68,ENE,64,4.0,7.6,25,0.00,,CLR,0.00,VWS V14.01,2013-02-17 21:19:00,
2013-02-17 14:24:00,55.9,20.6,23.68,NW,325,2.7,8.3,25,0.00,,CLR,0.00,VWS V14.01,2013-02-17 21:24:00,
2013-02-17 14:29:00,55.4,20.2,23.68,NE,39,3.1,8.3,25,0.00,,CLR,0.00,VWS V14.01,2013-02-17 21:29:00,
2013-02-17 14:34:00,54.9,20.6,23.68,SSW,213,3.6,8.3,26,0.00,,CLR,0.00,VWS V14.01,2013-02-17 21:34:00,
2013-02-17 14:39:00,54.9,20.6,23.68,NNW,342,0.0,5.4,26,0.00,,,0.00,VWS V14.01,2013-02-17 21:39:00,
2013-02-17 14:44:00,55.4,20.2,23.68,North,0,4.0,8.3,25,0.00,,,0.00,VWS V14.01,2013-02-17 21:44:00,
2013-02-17 14:49:00,55.4,20.2,23.68,NNE,18,4.0,8.3,25,0.00,,CLR,0.00,VWS V14.01,2013-02-17 21:49:00,
2013-02-17 14:54:00,55.6,20.3,23.68,SE,137,2.7,8.3,25,0.00,,CLR,0.00,VWS V14.01,2013-02-17 21:54:00,
2013-02-17 14:59:00,55.9,20.6,23.68,North,7,5.4,12.3,25,0.00,,CLR,0.00,VWS V14.01,2013-02-17 21:59:00,
2013-02-17 15:04:00,56.1,20.8,23.68,North,353,5.4,12.3,25,0.00,,CLR,0.00,VWS V14.01,2013-02-17 22:04:00,
2013-02-17 15:09:00,55.9,20.6,23.68,ENE,62,2.7,5.4,25,0.00,,CLR,0.00,VWS V14.01,2013-02-17 22:09:00,
2013-02-17 15:14:00,55.9,20.6,23.68,ENE,71,5.4,5.4,25,0.00,,CLR,0.00,VWS V14.01,2013-02-17 22:14:00,
2013-02-17 15:19:00,55.6,20.3,23.68,ESE,111,5.8,8.7,25,0.00,,CLR,0.00,VWS V14.01,2013-02-17 22:19:00,
2013-02-17 15:24:00,55.0,19.9,23.68,North,357,2.2,8.1,25,0.00,,CLR,0.00,VWS V14.01,2013-02-17 22:24:00,
2013-02-17 15:29:00,54.7,19.6,23.68,NNW,342,4.0,8.7,25,0.00,,CLR,0.00,VWS V14.01,2013-02-17 22:29:00,
2013-02-17 15:34:00,54.5,19.4,23.68,North,0,2.7,8.7,25,0.00,,CLR,0.00,VWS V14.01,2013-02-17 22:34:00,
2013-02-17 15:39:00,54.0,19.0,23.68,NE,36,4.0,10.1,25,0.00,,CLR,0.00,VWS V14.01,2013-02-17 22:39:00,
2013-02-17 15:44:00,53.4,19.4,23.68,NW,318,6.3,6.3,26,0.00,,CLR,0.00,VWS V14.01,2013-02-17 22:44:00,
2013-02-17 15:49:00,53.8,18.8,23.68,West,271,2.7,8.3,25,0.00,,CLR,0.00,VWS V14.01,2013-02-17 22:49:00,
2013-02-17 15:54:00,53.6,18.6,23.68,NNW,333,3.1,9.2,25,0.00,,CLR,0.00,VWS V14.01,2013-02-17 22:54:00,
2013-02-17 15:59:00,53.1,19.1,23.68,South,189,4.5,11.0,26,0.00,,CLR,0.00,VWS V14.01,2013-02-17 22:59:00,
2013-02-17 16:04:00,52.9,19.0,23.68,NNW,346,6.3,10.1,26,0.00,,CLR,0.00,VWS V14.01,2013-02-17 23:04:00,
2013-02-17 16:09:00,52.3,18.5,23.68,West,281,6.3,6.3,26,0.00,,CLR,0.00,VWS V14.01,2013-02-17 23:09:00,
2013-02-17 16:14:00,52.0,18.2,23.68,NNW,345,4.0,13.2,26,0.00,,CLR,0.00,VWS V14.01,2013-02-17 23:14:00,
2013-02-17 16:19:00,51.6,17.9,23.68,North,6,4.9,13.2,26,0.00,,CLR,0.00,VWS V14.01,2013-02-17 23:19:00,
2013-02-17 16:24:00,51.3,17.6,23.68,NNE,18,2.7,8.3,26,0.00,,CLR,0.00,VWS V14.01,2013-02-17 23:24:00,
2013-02-17 16:29:00,51.3,17.6,23.68,NNW,329,4.0,8.3,26,0.00,,CLR,0.00,VWS V14.01,2013-02-17 23:29:00,
2013-02-17 16:34:00,51.1,17.4,23.68,West,278,2.2,8.3,26,0.00,,CLR,0.00,VWS V14.01,2013-02-17 23:34:00,
2013-02-17 16:39:00,50.7,17.1,23.68,WSW,243,3.6,4.9,26,0.00,,CLR,0.00,VWS V14.01,2013-02-17 23:39:00,
2013-02-17 16:44:00,50.4,16.8,23.68,NW,317,3.1,12.3,26,0.00,,CLR,0.00,VWS V14.01,2013-02-17 23:44:00,
2013-02-17 16:49:00,50.2,16.6,23.68,North,357,3.1,12.3,26,0.00,,CLR,0.00,VWS V14.01,2013-02-17 23:49:00,
2013-02-17 16:54:00,50.0,16.5,23.68,SW,230,3.6,12.3,26,0.00,,CLR,0.00,VWS V14.01,2013-02-17 23:54:00,
2013-02-17 16:59:00,49.8,16.3,23.68,East,79,2.7,12.3,26,0.00,,CLR,0.00,VWS V14.01,2013-02-17 23:59:00,
2013-02-17 17:04:00,49.6,17.0,23.68,North,353,0.0,5.4,27,0.00,,CLR,0.00,VWS V14.01,2013-02-18 00:04:00,
2013-02-17 17:09:00,49.3,16.7,23.68,NNE,15,6.3,6.3,27,0.00,,CLR,0.00,VWS V14.01,2013-02-18 00:09:00,
2013-02-17 17:14:00,48.7,15.4,23.71,North,353,3.6,7.6,26,0.00,,CLR,0.00,VWS V14.01,2013-02-18 00:14:00,
2013-02-17 17:19:00,48.4,16.0,23.71,North,0,2.7,7.6,27,0.00,,CLR,0.00,VWS V14.01,2013-02-18 00:19:00,
2013-02-17 17:24:00,48.2,15.8,23.71,North,357,3.1,8.1,27,0.00,,CLR,0.00,VWS V14.01,2013-02-18 00:24:00,
2013-02-17 17:29:00,48.0,15.6,23.68,NW,314,0.0,8.1,27,0.00,,CLR,0.00,VWS V14.01,2013-02-18 00:29:00,
2013-02-17 17:34:00,47.8,15.5,23.68,NNW,342,4.0,8.3,27,0.00,,CLR,0.00,VWS V14.01,2013-02-18 00:34:00,
2013-02-17 17:39:00,47.7,15.3,23.68,NNE,26,5.4,5.4,27,0.00,,CLR,0.00,VWS V14.01,2013-02-18 00:39:00,
2013-02-17 17:44:00,47.3,15.0,23.71,NE,53,5.8,5.8,27,0.00,,CLR,0.00,VWS V14.01,2013-02-18 00:44:00,
2013-02-17 17:49:00,46.9,14.7,23.71,NE,47,0.0,5.8,27,0.00,,CLR,0.00,VWS V14.01,2013-02-18 00:49:00,
2013-02-17 17:54:00,46.8,14.6,23.71,SE,143,0.0,6.3,27,0.00,,CLR,0.00,VWS V14.01,2013-02-18 00:54:00,
2013-02-17 17:59:00,46.6,14.4,23.71,NNE,18,0.0,6.3,27,0.00,,CLR,0.00,VWS V14.01,2013-02-18 00:59:00,
2013-02-17 18:04:00,46.0,14.8,23.71,North,0,2.7,5.4,28,0.00,,CLR,0.00,VWS V14.01,2013-02-18 01:04:00,
2013-02-17 18:09:00,45.9,14.6,23.71,North,6,2.2,4.0,28,0.00,,CLR,0.00,VWS V14.01,2013-02-18 01:09:00,
2013-02-17 18:14:00,45.7,14.5,23.71,WSW,249,3.1,4.0,28,0.00,,CLR,0.00,VWS V14.01,2013-02-18 01:14:00,
2013-02-17 18:19:00,45.0,13.8,23.71,WSW,249,2.7,5.4,28,0.00,,CLR,0.00,VWS V14.01,2013-02-18 01:19:00,
2013-02-17 18:24:00,44.6,13.5,23.71,SSW,212,0.0,2.7,28,0.00,,CLR,0.00,VWS V14.01,2013-02-18 01:24:00,
2013-02-17 18:29:00,44.2,14.0,23.71,SSW,207,0.0,3.6,29,0.00,,CLR,0.00,VWS V14.01,2013-02-18 01:29:00,
2013-02-17 18:34:00,43.7,13.5,23.71,SE,130,0.0,3.6,29,0.00,,CLR,0.00,VWS V14.01,2013-02-18 01:34:00,
2013-02-17 18:39:00,43.2,13.1,23.71,SSW,196,0.0,0.0,29,0.00,,CLR,0.00,VWS V14.01,2013-02-18 01:39:00,
2013-02-17 18:44:00,42.8,12.8,23.71,SW,217,3.6,5.4,29,0.00,,CLR,0.00,VWS V14.01,2013-02-18 01:44:00,
2013-02-17 18:49:00,42.4,12.4,23.71,South,184,2.7,5.4,29,0.00,,CLR,0.00,VWS V14.01,2013-02-18 01:49:00,
2013-02-17 18:54:00,42.1,12.9,23.71,WSW,256,2.7,5.4,30,0.00,,CLR,0.00,VWS V14.01,2013-02-18 01:54:00,
2013-02-17 18:59:00,41.9,12.7,23.71,SSW,203,0.0,5.4,30,0.00,,CLR,0.00,VWS V14.01,2013-02-18 01:59:00,
2013-02-17 19:04:00,41.7,12.6,23.71,ESE,106,0.0,0.0,30,0.00,,CLR,0.00,VWS V14.01,2013-02-18 02:04:00,
2013-02-17 19:09:00,41.2,12.9,23.71,SSE,168,0.0,0.0,31,0.00,,CLR,0.00,VWS V14.01,2013-02-18 02:09:00,
2013-02-17 19:14:00,40.8,13.3,23.74,WNW,283,0.0,0.0,32,0.00,,CLR,0.00,VWS V14.01,2013-02-18 02:14:00,
2013-02-17 19:19:00,40.5,12.9,23.74,SSW,212,0.0,4.0,32,0.00,,CLR,0.00,VWS V14.01,2013-02-18 02:19:00,
2013-02-17 19:24:00,40.1,14.0,23.74,WSW,249,0.0,0.0,34,0.00,,CLR,0.00,VWS V14.01,2013-02-18 02:24:00,
2013-02-17 19:29:00,39.9,13.8,23.71,WSW,248,0.0,0.0,34,0.00,,CLR,0.00,VWS V14.01,2013-02-18 02:29:00,
2013-02-17 19:34:00,39.9,13.8,23.71,WSW,258,0.0,4.0,34,0.00,,CLR,0.00,VWS V14.01,2013-02-18 02:34:00,
2013-02-17 19:39:00,39.7,14.3,23.71,WSW,237,0.0,0.0,35,0.00,,CLR,0.00,VWS V14.01,2013-02-18 02:39:00,
2013-02-17 19:44:00,39.7,15.0,23.71,WSW,237,0.0,0.0,36,0.00,,CLR,0.00,VWS V14.01,2013-02-18 02:44:00,
2013-02-17 19:49:00,39.7,15.0,23.71,South,176,0.0,0.0,36,0.00,,CLR,0.00,VWS V14.01,2013-02-18 02:49:00,
2013-02-17 19:54:00,39.6,14.2,23.71,North,357,0.0,0.0,35,0.00,,CLR,0.00,VWS V14.01,2013-02-18 02:54:00,
2013-02-17 19:59:00,39.4,14.7,23.74,North,357,0.0,0.0,36,0.00,,CLR,0.00,VWS V14.01,2013-02-18 02:59:00,
2013-02-17 20:04:00,39.0,15.6,23.74,North,357,0.0,0.0,38,0.00,,CLR,0.00,VWS V14.01,2013-02-18 03:04:00,
2013-02-17 20:09:00,38.7,14.6,23.74,North,357,0.0,0.0,37,0.00,,CLR,0.00,VWS V14.01,2013-02-18 03:09:00,
2013-02-17 20:14:00,38.5,14.5,23.74,North,357,0.0,0.0,37,0.00,,CLR,0.00,VWS V14.01,2013-02-18 03:14:00,
2013-02-17 20:19:00,37.9,14.6,23.74,North,357,0.0,0.0,38,0.00,,CLR,0.00,VWS V14.01,2013-02-18 03:19:00,
2013-02-17 20:24:00,37.8,14.4,23.74,North,357,0.0,0.0,38,0.00,,CLR,0.00,VWS V14.01,2013-02-18 03:24:00,
2013-02-17 20:29:00,37.4,14.7,23.74,SSW,199,0.0,0.0,39,0.00,,CLR,0.00,VWS V14.01,2013-02-18 03:29:00,
2013-02-17 20:34:00,37.4,14.7,23.74,SW,231,0.0,0.0,39,0.00,,CLR,0.00,VWS V14.01,2013-02-18 03:34:00,
2013-02-17 20:39:00,37.4,14.7,23.74,SW,224,3.1,3.6,39,0.00,,CLR,0.00,VWS V14.01,2013-02-18 03:39:00,
2013-02-17 20:44:00,37.6,14.9,23.74,North,0,0.0,2.7,39,0.00,,CLR,0.00,VWS V14.01,2013-02-18 03:44:00,
2013-02-17 20:49:00,37.6,14.9,23.74,WSW,255,0.0,2.7,39,0.00,,CLR,0.00,VWS V14.01,2013-02-18 03:49:00,
2013-02-17 20:54:00,37.4,14.7,23.74,SSW,208,0.0,2.7,39,0.00,,CLR,0.00,VWS V14.01,2013-02-18 03:54:00,
2013-02-17 20:59:00,37.2,15.1,23.74,SSW,208,0.0,2.7,40,0.00,,CLR,0.00,VWS V14.01,2013-02-18 03:59:00,
2013-02-17 21:04:00,37.0,15.0,23.74,SSW,208,0.0,0.0,40,0.00,,CLR,0.00,VWS V14.01,2013-02-18 04:04:00,
2013-02-17 21:09:00,37.0,15.0,23.74,SSW,208,0.0,0.0,40,0.00,,CLR,0.00,VWS V14.01,2013-02-18 04:09:00,
2013-02-17 21:14:00,36.7,15.2,23.74,SSW,208,0.0,0.0,41,0.00,,CLR,0.00,VWS V14.01,2013-02-18 04:14:00,
2013-02-17 21:19:00,36.5,15.1,23.74,SSW,204,0.0,0.0,41,0.00,,CLR,0.00,VWS V14.01,2013-02-18 04:19:00,
2013-02-17 21:24:00,36.1,14.7,23.74,SSW,204,0.0,0.0,41,0.00,,CLR,0.00,VWS V14.01,2013-02-18 04:24:00,
2013-02-17 21:29:00,36.0,14.6,23.74,SSW,204,0.0,0.0,41,0.00,,CLR,0.00,VWS V14.01,2013-02-18 04:29:00,
2013-02-17 21:34:00,35.8,14.4,23.74,SSW,204,0.0,0.0,41,0.00,,CLR,0.00,VWS V14.01,2013-02-18 04:34:00,
2013-02-17 21:39:00,35.6,14.8,23.74,South,189,0.0,0.0,42,0.00,,CLR,0.00,VWS V14.01,2013-02-18 04:39:00,
2013-02-17 21:44:00,35.6,14.8,23.74,South,188,0.0,0.0,42,0.00,,CLR,0.00,VWS V14.01,2013-02-18 04:44:00,
2013-02-17 21:49:00,35.4,15.2,23.74,SSW,197,0.0,3.1,43,0.00,,CLR,0.00,VWS V14.01,2013-02-18 04:49:00,
2013-02-17 21:54:00,35.4,15.2,23.74,SSW,197,0.0,3.1,43,0.00,,CLR,0.00,VWS V14.01,2013-02-18 04:54:00,
2013-02-17 21:59:00,35.4,15.2,23.77,SSW,197,0.0,3.1,43,0.00,,CLR,0.00,VWS V14.01,2013-02-18 04:59:00,
2013-02-17 22:00:00,35.4,15.2,23.77,SSW,197,0.0,3.1,43,0.00,,CLR,0.00,VWS V14.01,2013-02-18 05:00:00,
2013-02-17 22:05:00,35.4,15.2,23.77,SSW,198,0.0,0.0,43,0.00,,CLR,0.00,VWS V14.01,2013-02-18 05:05:00,
2013-02-17 22:10:00,35.2,15.0,23.77,SSW,198,0.0,0.0,43,0.00,,CLR,0.00,VWS V14.01,2013-02-18 05:10:00,
2013-02-17 22:15:00,35.2,15.0,23.77,SSW,198,0.0,0.0,43,0.00,,CLR,0.00,VWS V14.01,2013-02-18 05:15:00,
2013-02-17 22:20:00,35.1,14.8,23.77,SSW,198,0.0,0.0,43,0.00,,CLR,0.00,VWS V14.01,2013-02-18 05:20:00,
2013-02-17 22:25:00,34.9,14.7,23.77,SSW,198,0.0,0.0,43,0.00,,CLR,0.00,VWS V14.01,2013-02-18 05:25:00,
2013-02-17 22:30:00,34.9,14.7,23.77,SSW,198,0.0,0.0,43,0.00,,CLR,0.00,VWS V14.01,2013-02-18 05:30:00,
2013-02-17 22:35:00,34.5,14.9,23.77,SSW,197,0.0,0.0,44,0.00,,CLR,0.00,VWS V14.01,2013-02-18 05:35:00,
2013-02-17 22:40:00,34.0,15.4,23.77,SSW,197,0.0,0.0,46,0.00,,CLR,0.00,VWS V14.01,2013-02-18 05:40:00,
2013-02-17 22:45:00,33.8,15.7,23.77,SSW,197,0.0,0.0,47,0.00,,CLR,0.00,VWS V14.01,2013-02-18 05:45:00,
2013-02-17 22:50:00,33.4,15.9,23.77,SSW,197,0.0,0.0,48,0.00,,CLR,0.00,VWS V14.01,2013-02-18 05:50:00,
2013-02-17 22:55:00,33.3,16.2,23.77,SSW,197,0.0,0.0,49,0.00,,CLR,0.00,VWS V14.01,2013-02-18 05:55:00,
2013-02-17 23:00:00,33.3,16.2,23.77,SSW,197,0.0,0.0,49,0.00,,CLR,0.00,VWS V14.01,2013-02-18 06:00:00,
2013-02-17 23:05:00,33.3,15.2,23.77,SSW,197,0.0,0.0,47,0.00,,CLR,0.00,VWS V14.01,2013-02-18 06:05:00,
2013-02-17 23:10:00,33.3,16.2,23.77,SSW,197,0.0,0.0,49,0.00,,CLR,0.00,VWS V14.01,2013-02-18 06:10:00,
2013-02-17 23:15:00,33.1,16.0,23.77,SSW,197,0.0,0.0,49,0.00,,CLR,0.00,VWS V14.01,2013-02-18 06:15:00,
2013-02-17 23:20:00,33.1,16.9,23.77,SSW,197,0.0,0.0,51,0.00,,CLR,0.00,VWS V14.01,2013-02-18 06:20:00,
2013-02-17 23:25:00,32.7,16.6,23.77,SSW,197,0.0,0.0,51,0.00,,CLR,0.00,VWS V14.01,2013-02-18 06:25:00,
2013-02-17 23:30:00,32.5,16.9,23.77,SSW,197,0.0,0.0,52,0.00,,CLR,0.00,VWS V14.01,2013-02-18 06:30:00,
2013-02-17 23:35:00,32.4,16.7,23.77,SSW,197,0.0,0.0,52,0.00,,CLR,0.00,VWS V14.01,2013-02-18 06:35:00,
2013-02-17 23:40:00,32.4,16.7,23.77,SSW,197,0.0,0.0,52,0.00,,,0.00,VWS V14.01,2013-02-18 06:40:00,
2013-02-17 23:45:00,32.7,16.6,23.77,SSW,197,0.0,0.0,51,0.00,,,0.00,VWS V14.01,2013-02-18 06:45:00,
2013-02-17 23:50:00,32.7,16.1,23.77,SSW,197,0.0,0.0,50,0.00,,CLR,0.00,VWS V14.01,2013-02-18 06:50:00,
2013-02-17 23:55:00,32.5,16.9,23.77,South,172,0.0,0.0,52,0.00,,CLR,0.00,VWS V14.01,2013-02-18 06:55:00,